Concord, NC

10:31 PM EDT on March 22, 2017 (GMT -0400)
Concord Regional

Weather History for KJQF - December, 2013

Change the Weather History Date:

Tuesday, December 3, 2013

  Actual Average (KCLT) Record (KCLT)
Temperature  
Mean Temperature 50 °F -  
Max Temperature 62 °F 56 °F 75 °F (1998)
Min Temperature 37 °F 35 °F 20 °F (1960)
Degree Days  
Heating Degree Days 16    
Moisture  
Dew Point 43 °F    
Average Humidity 79    
Maximum Humidity 93    
Minimum Humidity 59    
Precipitation  
Precipitation 0.00 in - - ()
Sea Level Pressure  
Sea Level Pressure 29.95 in    
Wind  
Wind Speed 1 mph (South)    
Max Wind Speed 7 mph    
Max Gust Speed -    
Visibility 10 miles    
Events Rain    
Averages and records for this station are not official NWS values.
T = Trace of Precipitation, MM = Missing Value Source: NWS Daily Summary

Daily Weather History Graph

Daily Weather History Graph

Search for Another Location

Airport or City:

Trip Planner

Search our weather history database for the weather conditions in past years. The results will help you decide how hot, cold, wet, or windy it might be!

Date:

Astronomy

Dec. 03, 2013 Rise Set
Actual Time 7:15 AM EST 5:10 PM EST
Civil Twilight 6:47 AM EST 5:38 PM EST
Nautical Twilight 6:15 AM EST 6:09 PM EST
Astronomical Twilight 5:45 AM EST 6:40 PM EST
Moon 7:43 AM EST (12/3) 6:11 PM EST (12/3)
Length of Visible Light 10h 50m
Length of Day
9h 54m
New Moon, 1% of the Moon is Illuminated
Dec 3
New Moon
Dec 9
First Quarter
Dec 17
Full
Dec 25
Last Quarter
Jan 1
New

Hourly Weather History & Observations

Time (EST) Temp. Dew Point Humidity Pressure Visibility Wind Dir Wind Speed Gust Speed Precip Events Conditions
12:15 AM 44.6 °F 37.4 °F 76% 29.91 in 10.0 mi Calm Calm - N/A   Overcast
12:35 AM 44.6 °F 37.4 °F 76% 29.91 in 10.0 mi Calm Calm - N/A   Overcast
12:55 AM 42.8 °F 37.4 °F 81% 29.91 in 10.0 mi Calm Calm - N/A   Overcast
1:15 AM 41.0 °F 37.4 °F 87% 29.91 in 10.0 mi Calm Calm - N/A   Overcast
1:35 AM 42.8 °F 37.4 °F 81% 29.91 in 10.0 mi Calm Calm - N/A   Overcast
1:55 AM 42.8 °F 37.4 °F 81% 29.92 in 10.0 mi Calm Calm - N/A   Overcast
2:15 AM 44.6 °F 37.4 °F 76% 29.91 in 10.0 mi Calm Calm - N/A   Overcast
2:35 AM 42.8 °F 37.4 °F 81% 29.91 in 10.0 mi Calm Calm - N/A   Scattered Clouds
2:55 AM 41.0 °F 35.6 °F 81% 29.91 in 10.0 mi Calm Calm - N/A   Clear
3:15 AM 39.2 °F 35.6 °F 87% 29.91 in 10.0 mi Calm Calm - N/A   Clear
3:35 AM 37.4 °F 35.6 °F 93% 29.91 in 10.0 mi Calm Calm - N/A   Clear
3:55 AM 39.2 °F 35.6 °F 87% 29.91 in 10.0 mi Calm Calm - N/A   Mostly Cloudy
4:15 AM 41.0 °F 37.4 °F 87% 29.91 in 10.0 mi Calm Calm - N/A   Overcast
4:35 AM 42.8 °F 39.2 °F 87% 29.91 in 10.0 mi Calm Calm - N/A   Overcast
4:55 AM 42.8 °F 39.2 °F 87% 29.91 in 10.0 mi Calm Calm - N/A   Overcast
5:15 AM 42.8 °F 39.2 °F 87% 29.91 in 10.0 mi Calm Calm - N/A   Overcast
5:35 AM 44.6 °F 39.2 °F 81% 29.92 in 10.0 mi Calm Calm - N/A   Overcast
5:55 AM 44.6 °F 41.0 °F 87% 29.93 in 10.0 mi Calm Calm - N/A   Overcast
6:15 AM 44.6 °F 41.0 °F 87% 29.93 in 10.0 mi Calm Calm - N/A Rain Light Rain
6:35 AM 44.6 °F 41.0 °F 87% 29.94 in 7.0 mi Calm Calm - N/A   Light Drizzle
6:51 AM 44.6 °F 42.8 °F 93% 29.94 in 7.0 mi Calm Calm - N/A   Light Drizzle
7:54 AM 46.4 °F 44.6 °F 93% 29.95 in 7.0 mi Calm Calm - N/A   Overcast
8:51 AM 48.2 °F 44.6 °F 87% 29.95 in 7.0 mi Calm Calm - N/A   Overcast
9:51 AM 50.0 °F 44.6 °F 82% 29.98 in 7.0 mi Calm Calm - N/A   Overcast
10:51 AM 53.6 °F 46.4 °F 77% 29.99 in 7.0 mi Calm Calm - N/A   Overcast
11:54 AM 60.8 °F 50.0 °F 68% 29.97 in 7.0 mi WSW 5.8 mph - N/A   Overcast
12:54 PM 60.8 °F 48.2 °F 63% 29.95 in 10.0 mi WSW 5.8 mph - N/A   Overcast
1:59 PM 60.8 °F 48.2 °F 63% 29.93 in 10.0 mi South 6.9 mph - N/A   Overcast
2:57 PM 62.6 °F 48.2 °F 59% 29.94 in 10.0 mi SSW 6.9 mph - N/A   Mostly Cloudy
3:53 PM 60.8 °F 48.2 °F 63% 29.94 in 10.0 mi South 5.8 mph - N/A   Overcast
4:59 PM - - N/A% 29.95 in 10.0 mi Calm Calm - N/A   Overcast
5:55 PM 59.0 °F 48.2 °F 67% 29.97 in 10.0 mi SSE 5.8 mph - N/A   Overcast
6:55 PM 57.2 °F 48.2 °F 72% 29.97 in 10.0 mi SSE 4.6 mph - N/A   Mostly Cloudy
7:55 PM 55.4 °F 48.2 °F 77% 29.99 in 10.0 mi SSE 4.6 mph - N/A   Overcast
8:15 PM 55.4 °F 46.4 °F 72% 29.99 in 10.0 mi Calm Calm - N/A   Overcast
8:35 PM 55.4 °F 46.4 °F 72% 29.98 in 10.0 mi Calm Calm - N/A   Overcast
8:55 PM 55.4 °F 46.4 °F 72% 29.99 in 10.0 mi Calm Calm - N/A   Overcast
9:15 PM 55.4 °F 46.4 °F 72% 29.99 in 10.0 mi SE 3.5 mph - N/A   Overcast
9:35 PM 55.4 °F 46.4 °F 72% 29.99 in 10.0 mi Calm Calm - N/A   Overcast
9:55 PM 53.6 °F 46.4 °F 77% 29.99 in 10.0 mi Calm Calm - N/A Rain Rain
10:15 PM 53.6 °F 48.2 °F 82% 30.00 in 7.0 mi Calm Calm - N/A   Light Drizzle
10:35 PM 51.8 °F 48.2 °F 88% 29.99 in 10.0 mi Calm Calm - N/A   Overcast
10:55 PM 53.6 °F 48.2 °F 82% 29.99 in 10.0 mi Calm Calm - N/A   Overcast
11:15 PM 53.6 °F 48.2 °F 82% 30.00 in 10.0 mi Calm Calm - N/A   Overcast
11:35 PM 53.6 °F 46.4 °F 77% 30.01 in 10.0 mi Calm Calm - N/A   Overcast
11:55 PM 53.6 °F 46.4 °F 77% 30.01 in 10.0 mi Calm Calm - N/A   Overcast